Regional Weather Roundup
Issued by NWS

Home | Current Version | Previous Version | Graphics & Text | Print | Product List | Glossary Off
Versions: 1 2 3 4 5 6 7 8 9 10 11 12 13 14 15 16 17 18 19 20 21 22 23 24 25 26 27

000
ASUS45 KTFX 260910
RWRMT
MONTANA REGIONAL WEATHER ROUNDUP
NATIONAL WEATHER SERVICE GREAT FALLS MT
300 AM MDT SUN MAR 26 2017

NOTE: "FAIR" INDICATES FEW OR NO CLOUDS BELOW 12000 FEET WITH NO
SIGNIFICANT WEATHER AND/OR OBSTRUCTIONS TO VISIBILITY.

MTZ001>007-043-261000-
WEST OF THE DIVIDE

CITY           SKY/WX    TMP DP  RH WIND       PRES   REMARKS
KALISPELL      PTCLDY    28  26  92 CALM      29.98S
MISSOULA       PTCLDY    31  28  89 CALM      30.03S
BUTTE          CLEAR     30  24  78 CALM      29.97F
MULLAN PASS    CLOUDY    25  25 100 VRB6      29.94S WCI  18
ANACONDA         N/A     28  25  86 SW3       29.99S
DEER LODGE       N/A     30  28  93 CALM      30.00F
EUREKA           N/A     36  27  69 SE6       29.98S WCI  31
HAMILTON         N/A     37  34  87 CALM      30.01S
RONAN            N/A     36  31  82 NE1       30.04F
$$

MTZ008-052>055-261000-
SOUTHWEST MONTANA

CITY           SKY/WX    TMP DP  RH WIND       PRES   REMARKS
BOZEMAN        CLOUDY    32  29  88 SE7       29.96S WCI  26
DILLON         CLOUDY    35  22  58 S7        29.95S WCI  29
W YELLOWSTONE  CLOUDY    32  28  86 SW6       29.98S WCI  26
ENNIS          CLOUDY    36  32  87 S10       30.00S WCI  28
THREE FORKS      N/A     37 -14  11 CALM      29.97R
$$

MTZ009-010-012-014-046-048-049-054-261000-
EAST SLOPES AND CENTRAL MONTANA

CITY           SKY/WX    TMP DP  RH WIND       PRES   REMARKS
CUT BANK       CLEAR     28  18  66 W13       29.88S WCI  17
GREAT FALLS    CLEAR     31  22  69 S9        29.92F WCI  23
MALMSTROM AFB  CLOUDY    30  25  82 SW9       29.93F WCI  21
HELENA         CLEAR     39  27  62 S6        29.96F
AUGUSTA          N/A     33  20  57 W6        29.90F WCI  28
BOWMANS CRNR     N/A     29  22  74 S10       29.89F WCI  20
CHOTEAU          N/A     32  23  69 NE6       29.92S WCI  26
CONRAD           N/A     29  27  92 SW6       29.93F WCI  23
FAIRFIELD        N/A     37  22  56 SW12      29.90F WCI  29
POWER            N/A     28  21  74 SW10      29.90F WCI  19
RAYNESFORD     MOCLDY    29  22  76 CALM      29.94F
$$

MTZ011-013-016-021-045-047-050-051-261000-
NORTH CENTRAL MONTANA

CITY           SKY/WX    TMP DP  RH WIND       PRES   REMARKS
HAVRE          CLOUDY    40  27  59 SW10      29.92S
LEWISTOWN      CLOUDY    33  20  58 CALM      29.93S
N BAR RANCH      N/A     34  19  55 W9        29.94S WCI  26
CHINOOK          N/A     36  25  64 CALM      29.92R
DENTON         MOCLDY    35  22  58 SE5       29.90S
FORT BENTON      N/A     34  21  60 MISG      29.95S
GEYSER           N/A     37  22  54 SW5       29.92F
GRASS RANGE      N/A     35  23  60 W14       29.89S WCI  26
STANFORD       MOCLDY    34  23  62 N12       29.93R WCI  26
WINIFRED       MOCLDY    35  24  64 SW7       29.92S WCI  29
$$

MTZ017>020-022>027-061-062-261000-
NORTHEAST MONTANA

CITY           SKY/WX    TMP DP  RH WIND       PRES   REMARKS
GLASGOW        MOCLDY    37  27  67 E9        29.87S WCI  30
JORDAN           N/A     35  30  82 CALM      29.89R
SIDNEY         CLOUDY    40  30  67 NW3       29.90S
WOLF POINT     CLOUDY    37  33  85 CALM      29.89F
MALTA          CLEAR     30  27  86 SW7       29.89S WCI  23
PLENTYWOOD       N/A     41  34  75 CALM      29.89S
POPLAR           N/A     37  30  75 N3        29.90R
SCOBEY           N/A     33  20  59 W3        29.87
$$

MTZ028>42-056>058-261000-
SOUTHCENTRAL AND SOUTHEAST MONTANA

CITY           SKY/WX    TMP DP  RH WIND       PRES   REMARKS
BAKER          CLOUDY    42  38  85 S7        29.92F
BILLINGS       PTCLDY    41  33  73 SW9       29.91F
LIVINGSTON     MOCLDY    32  28  85 W7        29.94S WCI  26
MILES CITY     CLOUDY    44  36  73 S5        29.91S
BIG TIMBER     PTCLDY    34  30  86 W7        29.96S WCI  28
FORSYTH          N/A     43  37  81 CALM      29.91F
HARLOWTON      MOCLDY    34  25  70 NW9       29.93R WCI  26
LAUREL           N/A     36  26  67 CALM      29.91F
$$

REGIONAL REPORTS...DAKOTAS

CITY           SKY/WX    TMP DP  RH WIND       PRES   REMARKS
WILLISTON      CLOUDY    44  34  67 E6        29.90S
MINOT          CLOUDY    41  34  76 W7        29.90S
DICKINSON      LGT RAIN  42  34  73 CALM      29.89S
BEACH            N/A    N/A N/A N/A MISG        N/A
TIOGA            N/A     34  36 100 CALM      29.91S
WATFORD CITY     N/A     39  32  75 CALM      29.89S
BISMARCK       CLOUDY    40  35  83 SE5       29.94R
GRAND FORKS    CLOUDY    35  34  96 SW7       29.98S WCI  29
FARGO          CLOUDY    35  33  92 CALM      30.00R
BUFFALO SD       N/A     46  34  62 NE8       29.82S
RAPID CITY     CLOUDY    43  34  70 NW12      29.84S
$$

REGIONAL REPORTS...WYOMING/IDAHO/WASHINGTON

CITY           SKY/WX    TMP DP  RH WIND       PRES   REMARKS
GILLETTE       CLOUDY    40  37  89 N13       29.90S
SHERIDAN       CLOUDY    37  35  92 SE3       29.92F
BUFFALO WY     LGT RAIN  37  33  85 NW7       29.93S WCI  32
CODY           CLEAR     34  28  79 CALM      29.94F
YELLOWSTONE LA   N/A     23  21  92 CALM      29.98F
IDAHO FALLS    CLEAR     36  27  69 S13       29.98S WCI  27
SALMON         CLEAR     36  21  55 CALM      29.98S
BOISE          CLEAR     40  29  64 SE10      29.98F
SPOKANE        PTCLDY    35  32  88 SE9       29.98F WCI  28
$$

REGIONAL REPORTS...ALBERTA

CITY           SKY/WX    TMP DP  RH WIND       PRES   REMARKS
EDMONTON       CLEAR     32  28  86 SW2       29.79S
CALGARY        CLEAR     36  12  38 NW14G20   29.81R WCI  27
LETHBRIDGE     CLEAR     30  21  69 SW14      29.86S WCI  20
MEDICINE HAT   CLEAR     32  23  69 SW13      29.84S WCI  22
WATERTON GATE    N/A     34  16  47 SW13G18     N/A  WCI  25
CARDSTON         N/A     28  18  64 S6          N/A  WCI  22
MILK RIVER       N/A     28  23  80 W10         N/A  WCI  19
ONEFOUR          N/A     32  25  74 W10         N/A  WCI  24
$$

REGIONAL REPORTS...SASKATCHEWAN

CITY           SKY/WX    TMP DP  RH WIND       PRES   REMARKS
SWIFT CURRENT  PTCLDY    34  25  69 SW10      29.83R WCI  26
REGINA         MOCLDY    37  34  87 E3        29.86F
SASKATOON      CLOUDY    28  28 100 NE9       29.87S WCI  20
CYPRESS HILLS    N/A     34  14  44 W9          N/A  WCI  26
VAL MARIE        N/A     27  25  93 N1          N/A
ROCKGLEN         N/A     37  27  65 SW9         N/A  WCI  31
ASSINIBOIA       N/A     27  27 100 NE2         N/A
$$




USA.gov is the U.S. government's official web portal to all federal, state and local government web resources and services.